FW3337 Weather Reports


Display with metric or nautical units.
time (UTC)temp
F
wind
direction
speed
MPH
gust
MPH
rain 1hr
in
rain 24hr
in
rain mn
in
humidity
%
barometer
mb
20260508153045 56 299 1.0 11.0 0.00 0.07 0.07 49 1012.0
20260508151544 57 276 2.0 8.0 0.00 0.07 0.07 46 1011.8
20260508150042 56 213 3.0 8.0 0.00 0.07 0.07 47 1011.7
20260508144540 56 307 2.0 6.0 0.00 0.07 0.07 52 1011.8
20260508143038 55 255 0.0 7.0 0.00 0.07 0.07 57 1011.9
20260508141546 54 219 2.0 8.0 0.00 0.07 0.07 56 1012.0
20260508140031 53 293 1.0 5.0 0.00 0.07 0.07 62 1012.4
20260508134531 52 224 2.0 5.0 0.00 0.07 0.07 63 1012.2
20260508133026 51 296 2.0 6.0 0.00 0.07 0.07 64 1012.0
20260508131523 51 304 0.0 6.0 0.00 0.07 0.07 69 1012.2
20260508130020 50 310 0.0 4.0 0.00 0.07 0.07 74 1012.4
20260508124517 49 288 0.0 5.0 0.00 0.07 0.07 76 1012.3
20260508123014 48 266 1.0 3.0 0.00 0.07 0.07 82 1012.4
20260508121511 47 255 1.0 7.0 0.00 0.07 0.07 84 1012.7
20260508120007 46 226 0.0 2.0 0.00 0.07 0.07 88 1012.4
20260508114505 45 245 1.0 4.0 0.00 0.07 0.07 91 1012.6
20260508113004 44 339 0.0 2.0 0.00 0.07 0.07 93 1012.4
20260508111502 43 299 0.0 1.0 0.00 0.07 0.07 94 1012.3
20260508110104 42 299 0.0 0.0 0.01 0.07 0.07 95 1012.0
20260508104558 41 299 0.0 1.0 0.01 0.07 0.07 94 1012.0
20260508103126 41 299 0.0 0.0 0.01 0.07 0.07 94 1011.9
20260508101614 40 299 0.0 0.0 0.01 0.07 0.07 93 1011.8
20260508100053 41 299 0.0 0.0 0.00 0.06 0.06 93 1011.8
20260508094605 41 299 0.0 0.0 0.00 0.06 0.06 93 1011.6
20260508093049 42 299 0.0 0.0 0.00 0.06 0.06 93 1011.4
20260508091549 42 299 0.0 0.0 0.00 0.06 0.06 93 1011.4
20260508090058 43 299 0.0 0.0 0.00 0.06 0.06 93 1011.4
20260508084546 43 299 0.0 1.0 0.00 0.06 0.06 93 1011.1
20260508083102 43 299 0.0 2.0 0.00 0.06 0.06 92 1011.0
20260508081545 44 299 0.0 0.0 0.00 0.06 0.06 93 1011.1
20260508080052 44 299 0.0 2.0 0.00 0.06 0.06 93 1011.0
20260508074549 44 299 0.0 0.0 0.00 0.07 0.06 92 1011.0
20260508073044 44 299 0.0 0.0 0.00 0.07 0.06 92 1011.1
20260508071544 44 299 0.0 0.0 0.02 0.07 0.06 92 1011.2
20260508070042 44 299 0.0 1.0 0.04 0.07 0.06 91 1011.4
20260508064551 44 299 0.0 1.0 0.06 0.14 0.06 91 1011.5
20260508063040 44 299 0.0 6.0 0.06 0.14 0.06 89 1011.7
20260508061539 45 319 0.0 1.0 0.04 0.12 0.04 88 1011.7
20260508060038 46 319 0.0 2.0 0.02 0.10 0.02 84 1011.7
20260508054535 44 306 4.0 9.0 0.00 0.10 0.00 81 1011.2
20260508053034 43 56 0.0 2.0 0.00 0.10 0.00 90 1010.4
20260508051528 43 56 0.0 0.0 0.00 0.10 0.00 89 1008.9
20260508050027 43 56 0.0 0.0 0.00 0.10 0.00 88 1008.9
20260508044525 43 56 0.0 0.0 0.00 0.10 0.00 88 1009.1
20260508043024 43 56 0.0 0.0 0.00 0.10 0.00 88 1009.1
20260508041522 43 56 0.0 0.0 0.00 0.10 0.00 88 1009.0
20260508040024 42 56 0.0 0.0 0.00 0.10 0.10 88 1009.0
20260508034518 42 56 0.0 0.0 0.00 0.10 0.10 88 1009.1
20260508033022 42 56 0.0 0.0 0.00 0.10 0.10 87 1009.0
20260508031526 42 56 0.0 0.0 0.00 0.10 0.10 86 1009.2
20260508030016 43 56 0.0 0.0 0.00 0.10 0.10 85 1009.2
20260508024514 43 56 0.0 0.0 0.00 0.10 0.10 84 1009.2
20260508023023 44 56 0.0 0.0 0.00 0.10 0.10 82 1009.3
20260508021514 44 56 0.0 0.0 0.00 0.10 0.10 80 1009.2
20260508020008 45 56 0.0 0.0 0.00 0.10 0.10 78 1009.0
20260508014517 46 56 0.0 0.0 0.00 0.10 0.10 77 1009.0
20260508013004 47 56 0.0 0.0 0.00 0.10 0.10 74 1009.0
20260508011504 48 56 0.0 0.0 0.00 0.10 0.10 71 1008.9
20260508010004 49 56 0.0 0.0 0.00 0.13 0.10 67 1008.7
20260508004508 51 56 0.0 0.0 0.00 0.13 0.10 65 1008.6
20260508003010 52 56 0.0 0.0 0.00 0.13 0.10 62 1008.3
20260508001502 53 56 0.0 0.0 0.00 0.13 0.10 56 1008.1
20260508000001 55 56 0.0 0.0 0.00 0.13 0.10 52 1007.9
20260507234500 57 56 0.0 0.0 0.00 0.13 0.10 48 1007.9
20260507233101 58 56 0.0 1.0 0.00 0.13 0.10 44 1007.7
20260507231603 58 56 0.0 2.0 0.00 0.13 0.10 40 1007.6
20260507230101 59 56 0.0 5.0 0.00 0.13 0.10 39 1007.6
20260507224616 60 310 0.0 7.0 0.00 0.13 0.10 37 1007.4
20260507223101 60 16 1.0 4.0 0.00 0.13 0.10 38 1007.4
20260507221558 60 270 1.0 8.0 0.00 0.13 0.10 39 1007.3
20260507220058 61 348 3.0 8.0 0.00 0.13 0.10 35 1007.6
20260507214603 61 313 3.0 11.0 0.00 0.13 0.10 35 1007.5
20260507213056 61 339 2.0 6.0 0.00 0.13 0.10 37 1007.4
20260507211623 61 290 3.0 9.0 0.00 0.13 0.10 37 1007.4
20260507210055 60 263 0.0 6.0 0.00 0.13 0.10 38 1007.2
20260507204604 61 297 1.0 6.0 0.00 0.13 0.10 37 1007.2
20260507203054 61 339 4.0 10.0 0.00 0.13 0.10 36 1007.4
20260507201610 62 320 2.0 12.0 0.00 0.13 0.10 37 1007.2
20260507194555 62 268 3.0 6.0 0.00 0.19 0.10 36 1007.4
20260507193049 62 293 3.0 10.0 0.00 0.19 0.10 38 1007.6
20260507191551 62 353 4.0 10.0 0.00 0.19 0.10 36 1007.9
20260507190045 62 278 2.0 10.0 0.00 0.19 0.10 36 1008.1
20260507184543 61 320 4.0 12.0 0.00 0.23 0.10 36 1008.0
20260507183042 61 293 3.0 8.0 0.00 0.23 0.10 36 1008.2
20260507181541 61 334 3.0 9.0 0.00 0.23 0.10 40 1008.4
20260507180045 60 41 2.0 5.0 0.00 0.23 0.10 39 1008.5
20260507174540 60 236 0.0 7.0 0.00 0.24 0.10 39 1008.5
20260507173039 60 267 3.0 8.0 0.00 0.24 0.10 38 1008.9
20260507171538 60 299 2.0 9.0 0.00 0.24 0.10 39 1009.2
20260507170037 60 309 1.0 6.0 0.00 0.24 0.10 38 1009.4
20260507164535 60 308 2.0 8.0 0.00 0.28 0.10 40 1009.5
20260507163032 58 26 2.0 11.0 0.00 0.28 0.10 39 1009.6
20260507161531 58 302 2.0 8.0 0.00 0.28 0.10 42 1009.8
20260507160034 58 355 2.0 9.0 0.00 0.28 0.10 40 1010.0
20260507154530 57 262 3.0 12.0 0.00 0.28 0.10 44 1010.1